Time,TemperatureF,DewpointF,PressureIn,WindDirection,WindDirectionDegrees,WindSpeedMPH,WindSpeedGustMPH,Humidity,HourlyPrecipIn,Conditions,Clouds,dailyrainin,SolarRadiationWatts/m^2,SoftwareType,DateUTC
2013-02-05 00:01:00,28.0,11.0,-100.00,North,1,0.0,0.0,49,0.00,,,0.00,0.000000,,2013-02-05 08:01:00,
2013-02-05 00:52:00,29.0,9.0,-100.00,North,10,0.0,0.0,43,0.00,,,0.00,0.000000,,2013-02-05 08:52:00,
2013-02-05 01:02:00,29.0,9.0,-100.00,North,10,0.0,0.0,43,0.00,,,0.00,0.000000,,2013-02-05 09:02:00,
2013-02-05 01:52:00,29.0,9.0,-100.00,North,351,0.0,0.0,43,0.00,,,0.00,0.000000,,2013-02-05 09:52:00,
2013-02-05 02:01:00,29.0,9.0,-100.00,North,351,0.0,0.0,43,0.00,,,0.00,0.000000,,2013-02-05 10:01:00,
2013-02-05 02:31:00,29.0,9.0,-100.00,North,351,0.0,0.0,43,0.00,,,0.00,0.000000,,2013-02-05 10:31:00,
2013-02-05 02:52:00,29.0,12.0,-100.00,North,355,0.0,0.0,48,0.00,,,0.00,0.000000,,2013-02-05 10:52:00,
2013-02-05 03:01:00,29.0,12.0,-100.00,North,355,0.0,0.0,48,0.00,,,0.00,0.000000,,2013-02-05 11:01:00,
2013-02-05 03:11:00,29.0,12.0,-100.00,North,355,0.0,0.0,48,0.00,,,0.00,0.000000,,2013-02-05 11:11:00,
2013-02-05 03:22:00,29.0,12.0,-100.00,North,355,0.0,0.0,48,0.00,,,0.00,0.000000,,2013-02-05 11:22:00,
2013-02-05 03:32:00,29.0,12.0,-100.00,North,355,0.0,0.0,48,0.00,,,0.00,0.000000,,2013-02-05 11:32:00,
2013-02-05 03:52:00,28.0,8.0,-100.00,NNW,340,0.0,0.0,43,0.00,,,0.00,0.000000,,2013-02-05 11:52:00,
2013-02-05 04:01:00,28.0,8.0,-100.00,NNW,340,0.0,0.0,43,0.00,,,0.00,0.000000,,2013-02-05 12:01:00,
2013-02-05 05:01:00,29.0,7.0,-100.00,North,354,0.0,0.0,38,0.00,,,0.00,0.000000,,2013-02-05 13:01:00,
2013-02-05 06:01:00,30.0,5.0,-100.00,North,356,0.0,0.0,34,0.00,,,0.00,0.000000,,2013-02-05 14:01:00,
2013-02-05 06:31:00,30.0,5.0,-100.00,North,356,0.0,0.0,34,0.00,,,0.00,0.000000,,2013-02-05 14:31:00,
2013-02-05 07:01:00,29.0,6.0,-100.00,North,352,0.0,0.0,37,0.00,,,0.00,0.000000,,2013-02-05 15:01:00,
2013-02-05 07:11:00,29.0,6.0,-100.00,North,352,0.0,0.0,37,0.00,,,0.00,0.000000,,2013-02-05 15:11:00,
2013-02-05 07:21:00,29.0,6.0,-100.00,North,352,0.0,0.0,37,0.00,,,0.00,0.000000,,2013-02-05 15:21:00,
2013-02-05 08:01:00,32.0,9.0,-100.00,NNW,347,0.0,0.0,37,0.00,,,0.00,18.000000,,2013-02-05 16:01:00,
2013-02-05 08:11:00,32.0,9.0,-100.00,NNW,347,0.0,0.0,37,0.00,,,0.00,18.000000,,2013-02-05 16:11:00,
2013-02-05 08:22:00,32.0,9.0,-100.00,NNW,347,0.0,0.0,37,0.00,,,0.00,18.000000,,2013-02-05 16:22:00,
2013-02-05 08:32:00,32.0,9.0,-100.00,NNW,347,0.0,0.0,37,0.00,,,0.00,18.000000,,2013-02-05 16:32:00,
2013-02-05 08:52:00,53.0,12.0,-100.00,NE,49,0.0,0.0,19,0.00,,,-99.99,274.000000,,2013-02-05 16:52:00,
2013-02-05 09:01:00,53.0,12.0,-100.00,NE,49,0.0,0.0,19,0.00,,,-99.99,274.000000,,2013-02-05 17:01:00,
2013-02-05 10:01:00,57.0,8.0,-100.00,WSW,250,1.0,5.0,14,-99.99,,,0.00,491.000000,,2013-02-05 18:01:00,
2013-02-05 11:02:00,60.0,9.0,-100.00,SSW,194,1.0,7.0,13,-99.99,,,0.00,758.000000,,2013-02-05 19:02:00,
2013-02-05 11:52:00,57.0,8.0,-100.00,SSW,213,3.0,9.0,14,-99.99,,,0.00,719.000000,,2013-02-05 19:52:00,
2013-02-05 12:01:00,57.0,8.0,-100.00,SSW,213,3.0,9.0,14,-99.99,,,0.00,719.000000,,2013-02-05 20:01:00,
2013-02-05 13:01:00,57.0,13.0,-100.00,SSW,192,3.0,11.0,17,0.00,,,0.00,580.000000,,2013-02-05 21:01:00,
2013-02-05 13:11:00,57.0,13.0,-100.00,SSW,192,3.0,11.0,17,0.00,,,0.00,580.000000,,2013-02-05 21:11:00,
2013-02-05 13:21:00,57.0,13.0,-100.00,SSW,192,3.0,11.0,17,0.00,,,0.00,580.000000,,2013-02-05 21:21:00,
2013-02-05 13:31:00,57.0,13.0,-100.00,SSW,192,3.0,11.0,17,0.00,,,0.00,580.000000,,2013-02-05 21:31:00,
2013-02-05 14:01:00,59.0,16.0,-100.00,SSW,201,2.0,9.0,18,0.00,,,0.00,875.000000,,2013-02-05 22:01:00,
2013-02-05 15:01:00,55.0,12.0,-100.00,SW,233,2.0,11.0,18,0.00,,,0.00,748.000000,,2013-02-05 23:01:00,
2013-02-05 15:11:00,55.0,12.0,-100.00,SW,233,2.0,11.0,18,0.00,,,0.00,748.000000,,2013-02-05 23:11:00,
2013-02-05 15:21:00,55.0,12.0,-100.00,SW,233,2.0,11.0,18,0.00,,,0.00,748.000000,,2013-02-05 23:21:00,
2013-02-05 15:32:00,55.0,12.0,-100.00,SW,233,2.0,11.0,18,0.00,,,0.00,748.000000,,2013-02-05 23:32:00,
2013-02-05 16:02:00,53.0,9.0,-100.00,SW,221,3.0,8.0,17,0.00,,,0.00,508.000000,,2013-02-06 00:02:00,
2013-02-05 17:02:00,46.0,14.0,-100.00,SSW,203,0.0,8.0,27,0.00,,,-99.99,159.000000,,2013-02-06 01:02:00,
2013-02-05 17:11:00,46.0,14.0,-100.00,SSW,203,0.0,8.0,27,0.00,,,-99.99,159.000000,,2013-02-06 01:11:00,
2013-02-05 17:21:00,46.0,14.0,-100.00,SSW,203,0.0,8.0,27,0.00,,,-99.99,159.000000,,2013-02-06 01:21:00,
2013-02-05 17:31:00,46.0,14.0,-100.00,SSW,203,0.0,8.0,27,0.00,,,-99.99,159.000000,,2013-02-06 01:31:00,
2013-02-05 18:01:00,42.0,10.0,-100.00,SSW,193,0.0,5.0,27,0.00,,,0.00,32.000000,,2013-02-06 02:01:00,
2013-02-05 18:52:00,35.0,15.0,-100.00,NNE,17,0.0,0.0,44,0.00,,,0.00,0.000000,,2013-02-06 02:52:00,
2013-02-05 19:02:00,35.0,15.0,-100.00,NNE,17,0.0,0.0,44,0.00,,,0.00,0.000000,,2013-02-06 03:02:00,
2013-02-05 19:12:00,35.0,15.0,-100.00,NNE,17,0.0,0.0,44,0.00,,,0.00,0.000000,,2013-02-06 03:12:00,
2013-02-05 19:21:00,35.0,15.0,-100.00,NNE,17,0.0,0.0,44,0.00,,,0.00,0.000000,,2013-02-06 03:21:00,
2013-02-05 19:31:00,35.0,15.0,-100.00,NNE,17,0.0,0.0,44,0.00,,,0.00,0.000000,,2013-02-06 03:31:00,
2013-02-05 20:02:00,34.0,18.0,-100.00,SW,219,0.0,0.0,51,0.00,,,0.00,0.000000,,2013-02-06 04:02:00,
2013-02-05 20:11:00,34.0,18.0,-100.00,SW,219,0.0,0.0,51,0.00,,,0.00,0.000000,,2013-02-06 04:11:00,
2013-02-05 20:21:00,34.0,18.0,-100.00,SW,219,0.0,0.0,51,0.00,,,0.00,0.000000,,2013-02-06 04:21:00,
2013-02-05 20:31:00,34.0,18.0,-100.00,SW,219,0.0,0.0,51,0.00,,,0.00,0.000000,,2013-02-06 04:31:00,
2013-02-05 20:52:00,36.0,23.0,-100.00,SE,131,0.0,5.0,60,0.00,,,0.00,0.000000,,2013-02-06 04:52:00,
2013-02-05 21:01:00,36.0,23.0,-100.00,SE,131,0.0,5.0,60,0.00,,,0.00,0.000000,,2013-02-06 05:01:00,
2013-02-05 21:12:00,36.0,23.0,-100.00,SE,131,0.0,5.0,60,0.00,,,0.00,0.000000,,2013-02-06 05:12:00,
2013-02-05 21:22:00,36.0,23.0,-100.00,SE,131,0.0,5.0,60,0.00,,,0.00,0.000000,,2013-02-06 05:22:00,
2013-02-05 21:31:00,36.0,23.0,-100.00,SE,131,0.0,5.0,60,0.00,,,0.00,0.000000,,2013-02-06 05:31:00,
2013-02-05 22:01:00,39.0,17.0,-100.00,SW,223,4.0,11.0,41,0.00,,,0.00,0.000000,,2013-02-06 06:01:00,
2013-02-05 22:11:00,39.0,17.0,-100.00,SW,223,4.0,11.0,41,0.00,,,0.00,0.000000,,2013-02-06 06:11:00,
2013-02-05 22:21:00,39.0,17.0,-100.00,SW,223,4.0,11.0,41,0.00,,,0.00,0.000000,,2013-02-06 06:21:00,
2013-02-05 22:31:00,39.0,17.0,-100.00,SW,223,4.0,11.0,41,0.00,,,0.00,0.000000,,2013-02-06 06:31:00,
2013-02-05 22:52:00,37.0,21.0,-100.00,SE,133,0.0,9.0,51,0.00,,,0.00,0.000000,,2013-02-06 06:52:00,
2013-02-05 23:01:00,37.0,21.0,-100.00,SE,133,0.0,9.0,51,0.00,,,0.00,0.000000,,2013-02-06 07:01:00,
2013-02-05 23:11:00,37.0,21.0,-100.00,SE,133,0.0,9.0,51,0.00,,,0.00,0.000000,,2013-02-06 07:11:00,
2013-02-05 23:21:00,37.0,21.0,-100.00,SE,133,0.0,9.0,51,0.00,,,0.00,0.000000,,2013-02-06 07:21:00,
2013-02-05 23:32:00,37.0,21.0,-100.00,SE,133,0.0,9.0,51,0.00,,,0.00,0.000000,,2013-02-06 07:32:00,